Weather History for KFXE - July, 2013

Change the Weather History Date:

Monday, July 8, 2013

  Actual Average (KFLL) Record (KFLL)
Temperature  
Mean Temperature 84 °F 84 °F  
Max Temperature 88 °F 90 °F 98 °F (1932)
Min Temperature 80 °F 78 °F 64 °F (1975)
Degree Days  
Heating Degree Days 0 0  
Month to date heating degree days 0  
Since 1 June heating degree days 0  
Since 1 July heating degree days 0  
Cooling Degree Days 18 19  
Month to date cooling degree days 152  
Year to date cooling degree days 2113  
Since 1 June cooling degree days 695  
Growing Degree Days 34 (Base 50)    
Moisture  
Dew Point 73 °F    
Average Humidity 71    
Maximum Humidity 81    
Minimum Humidity 59    
Precipitation  
Precipitation 0.03 in 0.20 in 2.87 in (1935)
Month to date precipitation 1.78  
Year to date precipitation 29.43  
Snow  
Snow 0.00 in - - ()
Month to date snowfall  
Since 1 June snowfall  
Since 1 July snowfall  
Snow Depth -    
Sea Level Pressure  
Sea Level Pressure 30.12 in    
Wind  
Wind Speed 10 mph (East)    
Max Wind Speed 17 mph    
Max Gust Speed 25 mph    
Visibility 10 miles    
Events      
T = Trace of Precipitation, MM = Missing Value Source: NWS Daily Summary

Daily Weather History Graph

Daily Weather History Graph

Search for Another Location

Airport or City:

Trip Planner

Search our weather history database for the weather conditions in past years. The results will help you decide how hot, cold, wet, or windy it might be!

Date:

Astronomy

Jul. 08, 2013 Rise Set
Actual Time 6:34 AM EDT 8:16 PM EDT
Civil Twilight 6:08 AM EDT 8:42 PM EDT
Nautical Twilight 5:37 AM EDT 9:13 PM EDT
Astronomical Twilight 5:05 AM EDT 9:46 PM EDT
Moon 6:54 AM EDT (7/8) 8:28 PM EDT (7/8)
Length of Visible Light 14h 33m
Length of Day
13h 41m
New Moon, 0% of the Moon is Illuminated
Jul 8
New Moon
Jul 15
First Quarter
Jul 22
Full
Jul 29
Last Quarter
Aug 6
New

Hourly Weather History & Observations

Time (EDT) Temp. Heat Index Dew Point Humidity Pressure Visibility Wind Dir Wind Speed Gust Speed Precip Events Conditions
12:53 AM 82.0 °F 87.4 °F 73.0 °F 74% 30.11 in 10.0 mi ESE 8.1 mph - N/A   Partly Cloudy
1:53 AM 81.0 °F 85.8 °F 73.0 °F 77% 30.11 in 10.0 mi East 8.1 mph - N/A   Partly Cloudy
2:53 AM 80.1 °F 84.2 °F 73.0 °F 79% 30.10 in 10.0 mi East 5.8 mph - N/A   Partly Cloudy
3:53 AM 81.0 °F 85.8 °F 73.0 °F 77% 30.10 in 10.0 mi ESE 8.1 mph - N/A   Scattered Clouds
4:53 AM 80.1 °F 83.8 °F 72.0 °F 76% 30.09 in 10.0 mi ESE 9.2 mph - N/A   Clear
5:53 AM 80.1 °F 83.8 °F 72.0 °F 76% 30.09 in 10.0 mi ESE 9.2 mph - N/A   Clear
6:53 AM 80.1 °F 83.8 °F 72.0 °F 76% 30.10 in 10.0 mi East 10.4 mph - N/A   Partly Cloudy
7:53 AM 82.0 °F 87.4 °F 73.0 °F 74% 30.11 in 10.0 mi East 12.7 mph - N/A   Scattered Clouds
8:53 AM 84.0 °F 90.2 °F 73.0 °F 69% 30.12 in 10.0 mi ESE 16.1 mph - N/A   Scattered Clouds
9:53 AM 84.9 °F 90.7 °F 72.0 °F 65% 30.13 in 10.0 mi East 13.8 mph - N/A   Scattered Clouds
10:53 AM 86.0 °F 93.0 °F 73.0 °F 65% 30.15 in 10.0 mi East 13.8 mph - N/A   Scattered Clouds
11:53 AM 87.1 °F 94.5 °F 73.0 °F 63% 30.16 in 10.0 mi East 15.0 mph 20.7 mph N/A   Scattered Clouds
12:53 PM 87.1 °F 92.8 °F 71.1 °F 59% 30.15 in 10.0 mi East 15.0 mph 25.3 mph N/A   Scattered Clouds
1:53 PM 87.1 °F 92.8 °F 71.1 °F 59% 30.14 in 10.0 mi ESE 13.8 mph 20.7 mph N/A   Scattered Clouds
2:53 PM 84.9 °F 90.7 °F 72.0 °F 65% 30.13 in 10.0 mi East 17.3 mph 20.7 mph N/A   Scattered Clouds
3:53 PM 87.1 °F 92.8 °F 71.1 °F 59% 30.11 in 10.0 mi East 9.2 mph - N/A   Scattered Clouds
4:53 PM 87.1 °F 93.6 °F 72.0 °F 61% 30.09 in 10.0 mi East 9.2 mph - N/A   Scattered Clouds
5:53 PM 86.0 °F 92.2 °F 72.0 °F 63% 30.09 in 10.0 mi East 15.0 mph 18.4 mph N/A   Scattered Clouds
6:53 PM 80.1 °F 84.5 °F 73.9 °F 81% 30.10 in 10.0 mi East 4.6 mph - 0.03 in   Scattered Clouds
7:53 PM 82.0 °F 87.9 °F 73.9 °F 76% 30.11 in 10.0 mi NE 5.8 mph - N/A   Partly Cloudy
8:53 PM 81.0 °F 86.2 °F 73.9 °F 79% 30.10 in 10.0 mi NE 3.5 mph - N/A   Clear
9:53 PM 80.1 °F 84.5 °F 73.9 °F 81% 30.12 in 10.0 mi East 6.9 mph - N/A   Clear
10:53 PM 81.0 °F 86.2 °F 73.9 °F 79% 30.14 in 10.0 mi Calm Calm - N/A   Clear
11:53 PM 80.1 °F 84.2 °F 73.0 °F 79% 30.15 in 10.0 mi ENE 4.6 mph - N/A   Clear